Back to catalog

COSMOS 1867 COOLANT

AliveLEO
NORAD 39646·DEBRIS·🇷🇺 Russia

Launched Jul 10, 1987 from Baikonur Cosmodrome

Loading…

Next Passes (next 24 hours)

TLE

FreshSource: Space-Track

Epoch: Sep 14, 2026, 00:53 UTC

1 39646U 87060P   26257.03719871  .00000133  00000-0  83669-4 0  9990
2 39646  65.0083 121.9517 0019138 278.2436  81.6479 14.33856643650360

Track COSMOS 1867 COOLANT in real time with AllMySat

Download on the App Store